Year,Month,Day,Hour,Minute,Value (Times are PST for temperature in C)
2012,08,31,00,00,13.30
2012,08,31,00,01,13.30
2012,08,31,00,02,13.30
2012,08,31,00,03,13.30
2012,08,31,00,04,13.30
2012,08,31,00,05,13.30
2012,08,31,00,06,13.30
2012,08,31,00,07,13.30
2012,08,31,00,08,13.20
2012,08,31,00,09,13.20
2012,08,31,00,10,13.20
2012,08,31,00,11,13.20
2012,08,31,00,12,13.20
2012,08,31,00,13,13.20
2012,08,31,00,14,13.20
2012,08,31,00,15,13.20
2012,08,31,00,16,13.20
2012,08,31,00,17,13.20
2012,08,31,00,18,13.20
2012,08,31,00,19,13.10
2012,08,31,00,20,13.10
2012,08,31,00,21,13.10
2012,08,31,00,22,13.10
2012,08,31,00,23,13.10
2012,08,31,00,24,13.10
2012,08,31,00,25,13.10
2012,08,31,00,26,13.10
2012,08,31,00,27,13.10
2012,08,31,00,28,13.10
2012,08,31,00,29,13.00
2012,08,31,00,30,13.00
2012,08,31,00,31,13.00
2012,08,31,00,32,13.00
2012,08,31,00,33,13.00
2012,08,31,00,34,13.00
2012,08,31,00,35,13.00
2012,08,31,00,36,12.90
2012,08,31,00,37,12.90
2012,08,31,00,38,12.90
2012,08,31,00,39,12.90
2012,08,31,00,40,12.90
2012,08,31,00,41,12.90
2012,08,31,00,42,12.90
2012,08,31,00,43,12.90
2012,08,31,00,44,12.90
2012,08,31,00,45,12.90
2012,08,31,00,46,12.80
2012,08,31,00,47,12.80
2012,08,31,00,48,12.70
2012,08,31,00,49,12.70
2012,08,31,00,50,12.60
2012,08,31,00,51,12.60
2012,08,31,00,52,12.60
2012,08,31,00,53,12.50
2012,08,31,00,54,12.50
2012,08,31,00,55,12.40
2012,08,31,00,56,12.40
2012,08,31,00,57,12.30
2012,08,31,00,58,12.30
2012,08,31,00,59,12.20
2012,08,31,01,00,12.20
2012,08,31,01,01,12.20
2012,08,31,01,02,12.20
2012,08,31,01,03,12.10
2012,08,31,01,04,12.10
2012,08,31,01,05,12.10
2012,08,31,01,06,12.00
2012,08,31,01,07,12.00
2012,08,31,01,08,11.90
2012,08,31,01,09,11.90
2012,08,31,01,10,11.90
2012,08,31,01,11,11.90
2012,08,31,01,12,11.90
2012,08,31,01,13,11.80
2012,08,31,01,14,11.80
2012,08,31,01,15,11.80
2012,08,31,01,16,11.80
2012,08,31,01,17,11.70
2012,08,31,01,18,11.70
2012,08,31,01,19,11.70
2012,08,31,01,20,11.70
2012,08,31,01,21,11.70
2012,08,31,01,22,11.70
2012,08,31,01,23,11.60
2012,08,31,01,24,11.60
2012,08,31,01,25,11.60
2012,08,31,01,26,11.60
2012,08,31,01,27,11.60
2012,08,31,01,28,11.50
2012,08,31,01,29,11.50
2012,08,31,01,30,11.50
2012,08,31,01,31,11.40
2012,08,31,01,32,11.40
2012,08,31,01,33,11.40
2012,08,31,01,34,11.30
2012,08,31,01,35,11.30
2012,08,31,01,36,11.20
2012,08,31,01,37,11.20
2012,08,31,01,38,11.10
2012,08,31,01,39,11.10
2012,08,31,01,40,11.10
2012,08,31,01,41,11.10
2012,08,31,01,42,11.00
2012,08,31,01,43,11.00
2012,08,31,01,44,11.00
2012,08,31,01,45,10.90
2012,08,31,01,46,10.90
2012,08,31,01,47,10.90
2012,08,31,01,48,10.90
2012,08,31,01,49,10.80
2012,08,31,01,50,10.80
2012,08,31,01,51,10.80
2012,08,31,01,52,10.80
2012,08,31,01,53,10.70
2012,08,31,01,54,10.70
2012,08,31,01,55,10.70
2012,08,31,01,56,10.70
2012,08,31,01,57,10.60
2012,08,31,01,58,10.60
2012,08,31,01,59,10.60
2012,08,31,02,00,10.60
2012,08,31,02,01,10.60
2012,08,31,02,02,10.50
2012,08,31,02,03,10.50
2012,08,31,02,04,10.50
2012,08,31,02,05,10.40
2012,08,31,02,06,10.40
2012,08,31,02,07,10.40
2012,08,31,02,08,10.30
2012,08,31,02,09,10.30
2012,08,31,02,10,10.30
2012,08,31,02,11,10.30
2012,08,31,02,12,10.20
2012,08,31,02,13,10.20
2012,08,31,02,14,10.20
2012,08,31,02,15,10.20
2012,08,31,02,16,10.10
2012,08,31,02,17,10.10
2012,08,31,02,18,10.10
2012,08,31,02,19,10.10
2012,08,31,02,20,10.10
2012,08,31,02,21,10.00
2012,08,31,02,22,10.00
2012,08,31,02,23,10.00
2012,08,31,02,24,9.90
2012,08,31,02,25,9.90
2012,08,31,02,26,9.90
2012,08,31,02,27,9.90
2012,08,31,02,28,9.90
2012,08,31,02,29,9.80
2012,08,31,02,30,9.80
2012,08,31,02,31,9.80
2012,08,31,02,32,9.80
2012,08,31,02,33,9.80
2012,08,31,02,34,9.80
2012,08,31,02,35,9.80
2012,08,31,02,36,9.70
2012,08,31,02,37,9.70
2012,08,31,02,38,9.70
2012,08,31,02,39,9.60
2012,08,31,02,40,9.60
2012,08,31,02,41,9.60
2012,08,31,02,42,9.60
2012,08,31,02,43,9.60
2012,08,31,02,44,9.60
2012,08,31,02,45,9.60
2012,08,31,02,46,9.60
2012,08,31,02,47,9.50
2012,08,31,02,48,9.50
2012,08,31,02,49,9.50
2012,08,31,02,50,9.50
2012,08,31,02,51,9.40
2012,08,31,02,52,9.40
2012,08,31,02,53,9.40
2012,08,31,02,54,9.40
2012,08,31,02,55,9.40
2012,08,31,02,56,9.40
2012,08,31,02,57,9.30
2012,08,31,02,58,9.30
2012,08,31,02,59,9.30
2012,08,31,03,00,9.30
2012,08,31,03,01,9.30
2012,08,31,03,02,9.30
2012,08,31,03,03,9.30
2012,08,31,03,04,9.30
2012,08,31,03,05,9.20
2012,08,31,03,06,9.20
2012,08,31,03,07,9.20
2012,08,31,03,08,9.20
2012,08,31,03,09,9.20
2012,08,31,03,10,9.20
2012,08,31,03,11,9.10
2012,08,31,03,12,9.10
2012,08,31,03,13,9.20
2012,08,31,03,14,9.20
2012,08,31,03,15,9.20
2012,08,31,03,16,9.20
2012,08,31,03,17,9.20
2012,08,31,03,18,9.20
2012,08,31,03,19,9.20
2012,08,31,03,20,9.20
2012,08,31,03,21,9.20
2012,08,31,03,22,9.30
2012,08,31,03,23,9.30
2012,08,31,03,24,9.30
2012,08,31,03,25,9.30
2012,08,31,03,26,9.20
2012,08,31,03,27,9.20
2012,08,31,03,28,9.20
2012,08,31,03,29,9.20
2012,08,31,03,30,9.20
2012,08,31,03,31,9.10
2012,08,31,03,32,9.10
2012,08,31,03,33,9.00
2012,08,31,03,34,9.00
2012,08,31,03,35,9.00
2012,08,31,03,36,8.90
2012,08,31,03,37,9.00
2012,08,31,03,38,8.90
2012,08,31,03,39,8.90
2012,08,31,03,40,8.90
2012,08,31,03,41,8.90
2012,08,31,03,42,8.90
2012,08,31,03,43,8.90
2012,08,31,03,44,8.80
2012,08,31,03,45,8.80
2012,08,31,03,46,8.80
2012,08,31,03,47,8.80
2012,08,31,03,48,8.80
2012,08,31,03,49,8.80
2012,08,31,03,50,8.80
2012,08,31,03,51,8.70
2012,08,31,03,52,8.70
2012,08,31,03,53,8.70
2012,08,31,03,54,8.70
2012,08,31,03,55,8.70
2012,08,31,03,56,8.60
2012,08,31,03,57,8.60
2012,08,31,03,58,8.60
2012,08,31,03,59,8.60
2012,08,31,04,00,8.60
2012,08,31,04,01,8.50
2012,08,31,04,02,8.50
2012,08,31,04,03,8.50
2012,08,31,04,04,8.40
2012,08,31,04,05,8.40
2012,08,31,04,06,8.40
2012,08,31,04,07,8.30
2012,08,31,04,08,8.30
2012,08,31,04,09,8.30
2012,08,31,04,10,8.30
2012,08,31,04,11,8.30
2012,08,31,04,12,8.20
2012,08,31,04,13,8.20
2012,08,31,04,14,8.20
2012,08,31,04,15,8.20
2012,08,31,04,16,8.10
2012,08,31,04,17,8.10
2012,08,31,04,18,8.10
2012,08,31,04,19,8.10
2012,08,31,04,20,8.10
2012,08,31,04,21,8.10
2012,08,31,04,22,8.10
2012,08,31,04,23,8.10
2012,08,31,04,24,8.10
2012,08,31,04,25,8.00
2012,08,31,04,26,8.00
2012,08,31,04,27,8.00
2012,08,31,04,28,8.00
2012,08,31,04,29,8.00
2012,08,31,04,30,8.00
2012,08,31,04,31,7.90
2012,08,31,04,32,7.90
2012,08,31,04,33,7.90
2012,08,31,04,34,7.90
2012,08,31,04,35,7.90
2012,08,31,04,36,7.80
2012,08,31,04,37,7.80
2012,08,31,04,38,7.80
2012,08,31,04,39,7.80
2012,08,31,04,40,7.80
2012,08,31,04,41,7.80
2012,08,31,04,42,7.80
2012,08,31,04,43,7.80
2012,08,31,04,44,7.80
2012,08,31,04,45,7.70
2012,08,31,04,46,7.70
2012,08,31,04,47,7.70
2012,08,31,04,48,7.70
2012,08,31,04,49,7.70
2012,08,31,04,50,7.70
2012,08,31,04,51,7.60
2012,08,31,04,52,7.60
2012,08,31,04,53,7.60
2012,08,31,04,54,7.60
2012,08,31,04,55,7.60
2012,08,31,04,56,7.60
2012,08,31,04,57,7.60
2012,08,31,04,58,7.50
2012,08,31,04,59,7.50
2012,08,31,05,00,7.50
2012,08,31,05,01,7.50
2012,08,31,05,02,7.50
2012,08,31,05,03,7.40
2012,08,31,05,04,7.40
2012,08,31,05,05,7.40
2012,08,31,05,06,7.40
2012,08,31,05,07,7.40
2012,08,31,05,08,7.40
2012,08,31,05,09,7.40
2012,08,31,05,10,7.30
2012,08,31,05,11,7.30
2012,08,31,05,12,7.30
2012,08,31,05,13,7.30
2012,08,31,05,14,7.30
2012,08,31,05,15,7.20
2012,08,31,05,16,7.20
2012,08,31,05,17,7.20
2012,08,31,05,18,7.20
2012,08,31,05,19,7.20
2012,08,31,05,20,7.20
2012,08,31,05,21,7.20
2012,08,31,05,22,7.20
2012,08,31,05,23,7.20
2012,08,31,05,24,7.10
2012,08,31,05,25,7.10
2012,08,31,05,26,7.10
2012,08,31,05,27,7.10
2012,08,31,05,28,7.10
2012,08,31,05,29,7.10
2012,08,31,05,30,7.10
2012,08,31,05,31,7.00
2012,08,31,05,32,7.00
2012,08,31,05,33,7.00
2012,08,31,05,34,7.00
2012,08,31,05,35,7.00
2012,08,31,05,36,7.00
2012,08,31,05,37,6.90
2012,08,31,05,38,6.90
2012,08,31,05,39,6.90
2012,08,31,05,40,6.90
2012,08,31,05,41,6.90
2012,08,31,05,42,6.90
2012,08,31,05,43,6.90
2012,08,31,05,44,6.90
2012,08,31,05,45,6.90
2012,08,31,05,46,6.90
2012,08,31,05,47,6.90
2012,08,31,05,48,6.90
2012,08,31,05,49,6.90
2012,08,31,05,50,6.90
2012,08,31,05,51,6.90
2012,08,31,05,52,6.90
2012,08,31,05,53,6.90
2012,08,31,05,54,6.90
2012,08,31,05,55,6.90
2012,08,31,05,56,6.90
2012,08,31,05,57,6.90
2012,08,31,05,58,6.90
2012,08,31,05,59,6.90
2012,08,31,06,00,6.90
2012,08,31,06,01,6.80
2012,08,31,06,02,6.80
2012,08,31,06,03,6.80
2012,08,31,06,04,6.80
2012,08,31,06,05,6.80
2012,08,31,06,06,6.80
2012,08,31,06,07,6.80
2012,08,31,06,08,6.80
2012,08,31,06,09,6.80
2012,08,31,06,10,6.80
2012,08,31,06,11,6.80
2012,08,31,06,12,6.80
2012,08,31,06,13,6.80
2012,08,31,06,14,6.80
2012,08,31,06,15,6.80
2012,08,31,06,16,6.80
2012,08,31,06,17,6.80
2012,08,31,06,18,6.80
2012,08,31,06,19,6.80
2012,08,31,06,20,6.80
2012,08,31,06,21,6.80
2012,08,31,06,22,6.70
2012,08,31,06,23,6.70
2012,08,31,06,24,6.70
2012,08,31,06,25,6.70
2012,08,31,06,26,6.70
2012,08,31,06,27,6.70
2012,08,31,06,28,6.70
2012,08,31,06,29,6.70
2012,08,31,06,30,6.70
2012,08,31,06,31,6.70
2012,08,31,06,32,6.70
2012,08,31,06,33,6.70
2012,08,31,06,34,6.70
2012,08,31,06,35,6.70
2012,08,31,06,36,6.70
2012,08,31,06,37,6.70
2012,08,31,06,38,6.60
2012,08,31,06,39,6.60
2012,08,31,06,40,6.60
2012,08,31,06,41,6.60
2012,08,31,06,42,6.60
2012,08,31,06,43,6.60
2012,08,31,06,44,6.60
2012,08,31,06,45,6.60
2012,08,31,06,46,6.60
2012,08,31,06,47,6.60
2012,08,31,06,48,6.60
2012,08,31,06,49,6.60
2012,08,31,06,50,6.60
2012,08,31,06,51,6.60
2012,08,31,06,52,6.60
2012,08,31,06,53,6.60
2012,08,31,06,54,6.50
2012,08,31,06,55,6.50
2012,08,31,06,56,6.50
2012,08,31,06,57,6.50
2012,08,31,06,58,6.50
2012,08,31,06,59,6.50
2012,08,31,07,00,6.50
2012,08,31,07,01,6.50
2012,08,31,07,02,6.40
2012,08,31,07,03,6.40
2012,08,31,07,04,6.40
2012,08,31,07,05,6.40
2012,08,31,07,06,6.40
2012,08,31,07,07,6.40
2012,08,31,07,08,6.40
2012,08,31,07,09,6.40
2012,08,31,07,10,6.40
2012,08,31,07,11,6.40
2012,08,31,07,12,6.30
2012,08,31,07,13,6.30
2012,08,31,07,14,6.30
2012,08,31,07,15,6.30
2012,08,31,07,16,6.30
2012,08,31,07,17,6.30
2012,08,31,07,18,6.30
2012,08,31,07,19,6.30
2012,08,31,07,20,6.30
2012,08,31,07,21,6.40
2012,08,31,07,22,6.40
2012,08,31,07,23,6.40
2012,08,31,07,24,6.40
2012,08,31,07,25,6.40
2012,08,31,07,26,6.40
2012,08,31,07,27,6.40
2012,08,31,07,28,6.40
2012,08,31,07,29,6.40
2012,08,31,07,30,6.40
2012,08,31,07,31,6.40
2012,08,31,07,32,6.40
2012,08,31,07,33,6.40
2012,08,31,07,34,6.50
2012,08,31,07,35,6.50
2012,08,31,07,36,6.50
2012,08,31,07,37,6.50
2012,08,31,07,38,6.50
2012,08,31,07,39,6.50
2012,08,31,07,40,6.60
2012,08,31,07,41,6.60
2012,08,31,07,42,6.60
2012,08,31,07,43,6.60
2012,08,31,07,44,6.60
2012,08,31,07,45,6.60
2012,08,31,07,46,6.70
2012,08,31,07,47,6.70
2012,08,31,07,48,6.70
2012,08,31,07,49,6.70
2012,08,31,07,50,6.70
2012,08,31,07,51,6.80
2012,08,31,07,52,6.80
2012,08,31,07,53,6.80
2012,08,31,07,54,6.80
2012,08,31,07,55,6.80
2012,08,31,07,56,6.80
2012,08,31,07,57,6.80
2012,08,31,07,58,6.90
2012,08,31,07,59,6.90
2012,08,31,08,00,6.90
2012,08,31,08,01,6.90
2012,08,31,08,02,6.90
2012,08,31,08,03,6.90
2012,08,31,08,04,6.90
2012,08,31,08,05,6.90
2012,08,31,08,06,6.90
2012,08,31,08,07,6.90
2012,08,31,08,08,6.90
2012,08,31,08,09,6.90
2012,08,31,08,10,6.90
2012,08,31,08,11,6.90
2012,08,31,08,12,6.90
2012,08,31,08,13,6.90
2012,08,31,08,14,6.90
2012,08,31,08,15,6.90
2012,08,31,08,16,6.90
2012,08,31,08,17,6.80
2012,08,31,08,18,6.80
2012,08,31,08,19,6.80
2012,08,31,08,20,6.80
2012,08,31,08,21,6.80
2012,08,31,08,22,6.80
2012,08,31,08,23,6.80
2012,08,31,08,24,6.80
2012,08,31,08,25,6.90
2012,08,31,08,26,6.90
2012,08,31,08,27,6.90
2012,08,31,08,28,7.00
2012,08,31,08,29,7.00
2012,08,31,08,30,7.10
2012,08,31,08,31,7.10
2012,08,31,08,32,7.20
2012,08,31,08,33,7.30
2012,08,31,08,34,7.40
2012,08,31,08,35,7.50
2012,08,31,08,36,7.60
2012,08,31,08,37,7.60
2012,08,31,08,38,7.70
2012,08,31,08,39,7.80
2012,08,31,08,40,7.90
2012,08,31,08,41,8.00
2012,08,31,08,42,8.10
2012,08,31,08,43,8.20
2012,08,31,08,44,8.30
2012,08,31,08,45,8.40
2012,08,31,08,46,8.50
2012,08,31,08,47,8.70
2012,08,31,08,48,8.80
2012,08,31,08,49,9.00
2012,08,31,08,50,9.20
2012,08,31,08,51,9.30
2012,08,31,08,52,9.50
2012,08,31,08,53,9.60
2012,08,31,08,54,9.80
2012,08,31,08,55,9.90
2012,08,31,08,56,10.00
2012,08,31,08,57,10.20
2012,08,31,08,58,10.30
2012,08,31,08,59,10.40
2012,08,31,09,00,10.50
2012,08,31,09,01,10.60
2012,08,31,09,02,10.70
2012,08,31,09,03,10.80
2012,08,31,09,04,10.90
2012,08,31,09,05,11.00
2012,08,31,09,06,11.00
2012,08,31,09,07,11.10
2012,08,31,09,08,11.20
2012,08,31,09,09,11.30
2012,08,31,09,10,11.40
2012,08,31,09,11,11.50
2012,08,31,09,12,11.60
2012,08,31,09,13,11.70
2012,08,31,09,14,11.80
2012,08,31,09,15,11.90
2012,08,31,09,16,11.90
2012,08,31,09,17,12.00
2012,08,31,09,18,12.00
2012,08,31,09,19,12.00
2012,08,31,09,20,12.10
2012,08,31,09,21,12.10
2012,08,31,09,22,12.10
2012,08,31,09,23,12.20
2012,08,31,09,24,12.20
2012,08,31,09,25,12.30
2012,08,31,09,26,12.30
2012,08,31,09,27,12.30
2012,08,31,09,28,12.30
2012,08,31,09,29,12.30
2012,08,31,09,30,12.40
2012,08,31,09,31,12.40
2012,08,31,09,32,12.40
2012,08,31,09,33,12.40
2012,08,31,09,34,12.40
2012,08,31,09,35,12.40
2012,08,31,09,36,12.40
2012,08,31,09,37,12.40
2012,08,31,09,38,12.40
2012,08,31,09,39,12.40
2012,08,31,09,40,12.40
2012,08,31,09,41,12.40
2012,08,31,09,42,12.40
2012,08,31,09,43,12.40
2012,08,31,09,44,12.40
2012,08,31,09,45,12.30
2012,08,31,09,46,12.30
2012,08,31,09,47,12.30
2012,08,31,09,48,12.30
2012,08,31,09,49,12.30
2012,08,31,09,50,12.30
2012,08,31,09,51,12.40
2012,08,31,09,52,12.40
2012,08,31,09,53,12.40
2012,08,31,09,54,12.50
2012,08,31,09,55,12.60
2012,08,31,09,56,12.60
2012,08,31,09,57,12.70
2012,08,31,09,58,12.70
2012,08,31,09,59,12.70
2012,08,31,10,00,12.80
2012,08,31,10,01,12.80
2012,08,31,10,02,12.90
2012,08,31,10,03,12.90
2012,08,31,10,04,13.00
2012,08,31,10,05,13.10
2012,08,31,10,06,13.10
2012,08,31,10,07,13.10
2012,08,31,10,08,13.10
2012,08,31,10,09,13.10
2012,08,31,10,10,13.10
2012,08,31,10,11,13.10
2012,08,31,10,12,13.10
2012,08,31,10,13,13.10
2012,08,31,10,14,13.10
2012,08,31,10,15,13.10
2012,08,31,10,16,13.20
2012,08,31,10,17,13.20
2012,08,31,10,18,13.20
2012,08,31,10,19,13.30
2012,08,31,10,20,13.30
2012,08,31,10,21,13.40
2012,08,31,10,22,13.50
2012,08,31,10,23,13.60
2012,08,31,10,24,13.60
2012,08,31,10,25,13.70
2012,08,31,10,26,13.70
2012,08,31,10,27,13.80
2012,08,31,10,28,13.80
2012,08,31,10,29,13.90
2012,08,31,10,30,13.90
2012,08,31,10,31,14.00
2012,08,31,10,32,14.00
2012,08,31,10,33,14.10
2012,08,31,10,34,14.20
2012,08,31,10,35,14.20
2012,08,31,10,36,14.30
2012,08,31,10,37,14.40
2012,08,31,10,38,14.40
2012,08,31,10,39,14.50
2012,08,31,10,40,14.60
2012,08,31,10,41,14.60
2012,08,31,10,42,14.60
2012,08,31,10,43,14.60
2012,08,31,10,44,14.60
2012,08,31,10,45,14.70
2012,08,31,10,46,14.80
2012,08,31,10,47,14.80
2012,08,31,10,48,14.90
2012,08,31,10,49,14.90
2012,08,31,10,50,14.90
2012,08,31,10,51,14.90
2012,08,31,10,52,15.00
2012,08,31,10,53,15.00
2012,08,31,10,54,15.10
2012,08,31,10,55,15.10
2012,08,31,10,56,15.20
2012,08,31,10,57,15.20
2012,08,31,10,58,15.30
2012,08,31,10,59,15.30
2012,08,31,11,00,15.30
2012,08,31,11,01,15.30
2012,08,31,11,02,15.30
2012,08,31,11,03,15.20
2012,08,31,11,04,15.10
2012,08,31,11,05,15.10
2012,08,31,11,06,15.10
2012,08,31,11,07,15.00
2012,08,31,11,08,15.10
2012,08,31,11,09,15.10
2012,08,31,11,10,15.10
2012,08,31,11,11,15.10
2012,08,31,11,12,15.20
2012,08,31,11,13,15.20
2012,08,31,11,14,15.30
2012,08,31,11,15,15.50
2012,08,31,11,16,15.60
2012,08,31,11,17,15.70
2012,08,31,11,18,15.70
2012,08,31,11,19,15.80
2012,08,31,11,20,15.80
2012,08,31,11,21,15.80
2012,08,31,11,22,15.90
2012,08,31,11,23,15.90
2012,08,31,11,24,16.00
2012,08,31,11,25,16.10
2012,08,31,11,26,16.10
2012,08,31,11,27,16.20
2012,08,31,11,28,16.20
2012,08,31,11,29,16.20
2012,08,31,11,30,16.20
2012,08,31,11,31,16.20
2012,08,31,11,32,16.20
2012,08,31,11,33,16.20
2012,08,31,11,34,16.30
2012,08,31,11,35,16.30
2012,08,31,11,36,16.30
2012,08,31,11,37,16.30
2012,08,31,11,38,16.30
2012,08,31,11,39,16.30
2012,08,31,11,40,16.30
2012,08,31,11,41,16.40
2012,08,31,11,42,16.40
2012,08,31,11,43,16.50
2012,08,31,11,44,16.50
2012,08,31,11,45,16.60
2012,08,31,11,46,16.50
2012,08,31,11,47,16.50
2012,08,31,11,48,16.50
2012,08,31,11,49,16.50
2012,08,31,11,50,16.60
2012,08,31,11,51,16.60
2012,08,31,11,52,16.50
2012,08,31,11,53,16.50
2012,08,31,11,54,16.50
2012,08,31,11,55,16.60
2012,08,31,11,56,16.70
2012,08,31,11,57,16.70
2012,08,31,11,58,16.80
2012,08,31,11,59,17.00
2012,08,31,12,00,17.00
2012,08,31,12,01,17.10
2012,08,31,12,02,17.10
2012,08,31,12,03,17.20
2012,08,31,12,04,17.20
2012,08,31,12,05,17.30
2012,08,31,12,06,17.30
2012,08,31,12,07,17.30
2012,08,31,12,08,17.30
2012,08,31,12,09,17.30
2012,08,31,12,10,17.40
2012,08,31,12,11,17.50
2012,08,31,12,12,17.50
2012,08,31,12,13,17.60
2012,08,31,12,14,17.70
2012,08,31,12,15,17.80
2012,08,31,12,16,17.80
2012,08,31,12,17,17.80
2012,08,31,12,18,17.80
2012,08,31,12,19,17.80
2012,08,31,12,20,17.80
2012,08,31,12,21,17.90
2012,08,31,12,22,17.90
2012,08,31,12,23,17.90
2012,08,31,12,24,17.90
2012,08,31,12,25,17.80
2012,08,31,12,26,17.80
2012,08,31,12,27,17.80
2012,08,31,12,28,17.90
2012,08,31,12,29,17.90
2012,08,31,12,30,17.90
2012,08,31,12,31,17.90
2012,08,31,12,32,17.90
2012,08,31,12,33,18.00
2012,08,31,12,34,18.00
2012,08,31,12,35,18.00
2012,08,31,12,36,18.00
2012,08,31,12,37,18.00
2012,08,31,12,38,18.10
2012,08,31,12,39,18.10
2012,08,31,12,40,18.20
2012,08,31,12,41,18.30
2012,08,31,12,42,18.40
2012,08,31,12,43,18.50
2012,08,31,12,44,18.60
2012,08,31,12,45,18.70
2012,08,31,12,46,18.70
2012,08,31,12,47,18.80
2012,08,31,12,48,18.90
2012,08,31,12,49,19.00
2012,08,31,12,50,19.00
2012,08,31,12,51,19.00
2012,08,31,12,52,19.00
2012,08,31,12,53,19.10
2012,08,31,12,54,19.20
2012,08,31,12,55,19.30
2012,08,31,12,56,19.40
2012,08,31,12,57,19.50
2012,08,31,12,58,19.60
2012,08,31,12,59,19.50
2012,08,31,13,00,19.50
2012,08,31,13,01,19.50
2012,08,31,13,02,19.50
2012,08,31,13,03,19.50
2012,08,31,13,04,19.50
2012,08,31,13,05,19.50
2012,08,31,13,06,19.50
2012,08,31,13,07,19.60
2012,08,31,13,08,19.70
2012,08,31,13,09,19.80
2012,08,31,13,10,19.90
2012,08,31,13,11,20.10
2012,08,31,13,12,20.10
2012,08,31,13,13,20.20
2012,08,31,13,14,20.20
2012,08,31,13,15,20.30
2012,08,31,13,16,20.30
2012,08,31,13,17,20.30
2012,08,31,13,18,20.30
2012,08,31,13,19,20.20
2012,08,31,13,20,20.20
2012,08,31,13,21,20.20
2012,08,31,13,22,20.20
2012,08,31,13,23,20.30
2012,08,31,13,24,20.40
2012,08,31,13,25,20.50
2012,08,31,13,26,20.50
2012,08,31,13,27,20.60
2012,08,31,13,28,20.70
2012,08,31,13,29,20.70
2012,08,31,13,30,20.80
2012,08,31,13,31,20.80
2012,08,31,13,32,20.80
2012,08,31,13,33,20.80
2012,08,31,13,34,20.90
2012,08,31,13,35,20.90
2012,08,31,13,36,20.90
2012,08,31,13,37,21.00
2012,08,31,13,38,21.10
2012,08,31,13,39,21.20
2012,08,31,13,40,21.20
2012,08,31,13,41,21.30
2012,08,31,13,42,21.40
2012,08,31,13,43,21.40
2012,08,31,13,44,21.30
2012,08,31,13,45,21.30
2012,08,31,13,46,21.30
2012,08,31,13,47,21.20
2012,08,31,13,48,21.20
2012,08,31,13,49,21.20
2012,08,31,13,50,21.30
2012,08,31,13,51,21.30
2012,08,31,13,52,21.40
2012,08,31,13,53,21.40
2012,08,31,13,54,21.40
2012,08,31,13,55,21.40
2012,08,31,13,56,21.40
2012,08,31,13,57,21.30
2012,08,31,13,58,21.20
2012,08,31,13,59,21.10
2012,08,31,14,00,21.10
2012,08,31,14,01,21.10
2012,08,31,14,02,21.20
2012,08,31,14,03,21.20
2012,08,31,14,04,21.30
2012,08,31,14,05,21.40
2012,08,31,14,06,21.50
2012,08,31,14,07,21.60
2012,08,31,14,08,21.70
2012,08,31,14,09,21.70
2012,08,31,14,10,21.70
2012,08,31,14,11,21.70
2012,08,31,14,12,21.70
2012,08,31,14,13,21.70
2012,08,31,14,14,21.70
2012,08,31,14,15,21.80
2012,08,31,14,16,21.80
2012,08,31,14,17,21.80
2012,08,31,14,18,21.80
2012,08,31,14,19,21.80
2012,08,31,14,20,21.80
2012,08,31,14,21,21.80
2012,08,31,14,22,21.90
2012,08,31,14,23,22.00
2012,08,31,14,24,22.00
2012,08,31,14,25,22.00
2012,08,31,14,26,22.00
2012,08,31,14,27,21.90
2012,08,31,14,28,21.90
2012,08,31,14,29,21.90
2012,08,31,14,30,21.90
2012,08,31,14,31,21.80
2012,08,31,14,32,21.80
2012,08,31,14,33,21.80
2012,08,31,14,34,21.80
2012,08,31,14,35,21.80
2012,08,31,14,36,21.90
2012,08,31,14,37,21.90
2012,08,31,14,38,21.90
2012,08,31,14,39,21.90
2012,08,31,14,40,21.90
2012,08,31,14,41,22.00
2012,08,31,14,42,22.10
2012,08,31,14,43,22.20
2012,08,31,14,44,22.30
2012,08,31,14,45,22.40
2012,08,31,14,46,22.40
2012,08,31,14,47,22.40
2012,08,31,14,48,22.40
2012,08,31,14,49,22.30
2012,08,31,14,50,22.20
2012,08,31,14,51,22.10
2012,08,31,14,52,22.00
2012,08,31,14,53,22.00
2012,08,31,14,54,22.00
2012,08,31,14,55,22.10
2012,08,31,14,56,22.10
2012,08,31,14,57,22.10
2012,08,31,14,58,22.10
2012,08,31,14,59,22.10
2012,08,31,15,00,22.20
2012,08,31,15,01,22.20
2012,08,31,15,02,22.20
2012,08,31,15,03,22.20
2012,08,31,15,04,22.20
2012,08,31,15,05,22.20
2012,08,31,15,06,22.20
2012,08,31,15,07,22.20
2012,08,31,15,08,22.20
2012,08,31,15,09,22.30
2012,08,31,15,10,22.30
2012,08,31,15,11,22.30
2012,08,31,15,12,22.30
2012,08,31,15,13,22.20
2012,08,31,15,14,22.20
2012,08,31,15,15,22.10
2012,08,31,15,16,22.20
2012,08,31,15,17,22.20
2012,08,31,15,18,22.30
2012,08,31,15,19,22.40
2012,08,31,15,20,22.50
2012,08,31,15,21,22.50
2012,08,31,15,22,22.60
2012,08,31,15,23,22.60
2012,08,31,15,24,22.60
2012,08,31,15,25,22.60
2012,08,31,15,26,22.70
2012,08,31,15,27,22.80
2012,08,31,15,28,22.80
2012,08,31,15,29,22.80
2012,08,31,15,30,22.90
2012,08,31,15,31,22.90
2012,08,31,15,32,22.90
2012,08,31,15,33,22.90
2012,08,31,15,34,22.90
2012,08,31,15,35,22.90
2012,08,31,15,36,22.90
2012,08,31,15,37,22.90
2012,08,31,15,38,23.00
2012,08,31,15,39,23.10
2012,08,31,15,40,23.20
2012,08,31,15,41,23.30
2012,08,31,15,42,23.40
2012,08,31,15,43,23.40
2012,08,31,15,44,23.20
2012,08,31,15,45,23.00
2012,08,31,15,46,22.90
2012,08,31,15,47,22.80
2012,08,31,15,48,22.80
2012,08,31,15,49,22.70
2012,08,31,15,50,22.60
2012,08,31,15,51,22.50
2012,08,31,15,52,22.40
2012,08,31,15,53,22.30
2012,08,31,15,54,22.30
2012,08,31,15,55,22.30
2012,08,31,15,56,22.40
2012,08,31,15,57,22.40
2012,08,31,15,58,22.40
2012,08,31,15,59,22.40
2012,08,31,16,00,22.40
2012,08,31,16,01,22.40
2012,08,31,16,02,22.40
2012,08,31,16,03,22.30
2012,08,31,16,04,22.30
2012,08,31,16,05,22.30
2012,08,31,16,06,22.30
2012,08,31,16,07,22.20
2012,08,31,16,08,22.20
2012,08,31,16,09,22.20
2012,08,31,16,10,22.20
2012,08,31,16,11,22.10
2012,08,31,16,12,22.10
2012,08,31,16,13,22.10
2012,08,31,16,14,22.10
2012,08,31,16,15,22.00
2012,08,31,16,16,22.00
2012,08,31,16,17,22.00
2012,08,31,16,18,22.00
2012,08,31,16,19,22.00
2012,08,31,16,20,22.00
2012,08,31,16,21,22.00
2012,08,31,16,22,22.10
2012,08,31,16,23,22.10
2012,08,31,16,24,22.20
2012,08,31,16,25,22.30
2012,08,31,16,26,22.30
2012,08,31,16,27,22.40
2012,08,31,16,28,22.40
2012,08,31,16,29,22.40
2012,08,31,16,30,22.40
2012,08,31,16,31,22.40
2012,08,31,16,32,22.40
2012,08,31,16,33,22.40
2012,08,31,16,34,22.40
2012,08,31,16,35,22.30
2012,08,31,16,36,22.30
2012,08,31,16,37,22.20
2012,08,31,16,38,22.20
2012,08,31,16,39,22.20
2012,08,31,16,40,22.20
2012,08,31,16,41,22.10
2012,08,31,16,42,22.10
2012,08,31,16,43,22.10
2012,08,31,16,44,22.10
2012,08,31,16,45,22.20
2012,08,31,16,46,22.10
2012,08,31,16,47,22.00
2012,08,31,16,48,21.90
2012,08,31,16,49,21.80
2012,08,31,16,50,21.80
2012,08,31,16,51,21.70
2012,08,31,16,52,21.60
2012,08,31,16,53,21.60
2012,08,31,16,54,21.50
2012,08,31,16,55,21.50
2012,08,31,16,56,21.50
2012,08,31,16,57,21.50
2012,08,31,16,58,21.50
2012,08,31,16,59,21.50
2012,08,31,17,00,21.50
2012,08,31,17,01,21.40
2012,08,31,17,02,21.40
2012,08,31,17,03,21.40
2012,08,31,17,04,21.30
2012,08,31,17,05,21.30
2012,08,31,17,06,21.20
2012,08,31,17,07,21.20
2012,08,31,17,08,21.30
2012,08,31,17,09,21.30
2012,08,31,17,10,21.30
2012,08,31,17,11,21.30
2012,08,31,17,12,21.30
2012,08,31,17,13,21.30
2012,08,31,17,14,21.30
2012,08,31,17,15,21.30
2012,08,31,17,16,21.20
2012,08,31,17,17,21.20
2012,08,31,17,18,21.20
2012,08,31,17,19,21.20
2012,08,31,17,20,21.30
2012,08,31,17,21,21.30
2012,08,31,17,22,21.30
2012,08,31,17,23,21.30
2012,08,31,17,24,21.30
2012,08,31,17,25,21.30
2012,08,31,17,26,21.30
2012,08,31,17,27,21.30
2012,08,31,17,28,21.30
2012,08,31,17,29,21.30
2012,08,31,17,30,21.30
2012,08,31,17,31,21.30
2012,08,31,17,32,21.20
2012,08,31,17,33,21.30
2012,08,31,17,34,21.30
2012,08,31,17,35,21.30
2012,08,31,17,36,21.30